EW3591 Weather Reports


time (UTC)temp
F
wind
direction
speed
knots
gust
knots
rain 1hr
in
rain 24hr
in
rain mn
in
humidity
%
barometer
mb
20260510235531 54 300 0.9 6.1 0.00 0.00 0.00 40 1018.9
20260510235330 54 68 1.7 6.1 0.00 0.00 0.00 40 1018.9
20260510235130 54 51 1.7 6.1 0.00 0.00 0.00 40 1018.8
20260510234930 54 41 2.6 6.1 0.00 0.00 0.00 40 1018.8
20260510234729 54 348 1.7 4.3 0.00 0.00 0.00 39 1018.7
20260510234529 54 302 0.9 5.2 0.00 0.00 0.00 39 1018.8
20260510234329 54 213 0.9 5.2 0.00 0.00 0.00 39 1018.8
20260510234129 54 135 1.7 5.2 0.00 0.00 0.00 39 1018.9
20260510233928 54 168 1.7 5.2 0.00 0.00 0.00 38 1018.9
20260510233728 54 220 1.7 5.2 0.00 0.00 0.00 39 1018.9
20260510233528 54 75 1.7 5.2 0.00 0.00 0.00 38 1018.8
20260510233327 54 113 0.9 5.2 0.00 0.00 0.00 38 1018.8
20260510233127 55 91 1.7 5.2 0.00 0.00 0.00 38 1018.8
20260510232927 55 228 0.9 5.2 0.00 0.00 0.00 38 1018.9
20260510232726 55 300 0.9 3.5 0.00 0.00 0.00 38 1018.8
20260510232526 55 38 0.9 3.5 0.00 0.00 0.00 39 1018.7
20260510232326 55 105 0.9 5.2 0.00 0.00 0.00 38 1018.7
20260510232126 55 108 1.7 6.1 0.00 0.00 0.00 37 1018.6
20260510231925 55 87 1.7 6.1 0.00 0.00 0.00 38 1018.6
20260510231725 55 71 1.7 6.1 0.00 0.00 0.00 37 1018.6
20260510231525 55 75 1.7 7.0 0.00 0.00 0.00 37 1018.4
20260510231324 55 71 2.6 7.0 0.00 0.00 0.00 37 1018.4
20260510231124 56 96 1.7 7.0 0.00 0.00 0.00 37 1018.4
20260510230924 56 100 0.9 7.0 0.00 0.00 0.00 37 1018.2
20260510230723 56 53 1.7 7.0 0.00 0.00 0.00 36 1018.1
20260510230523 56 284 1.7 6.1 0.00 0.00 0.00 37 1018.1
20260510230323 56 259 0.9 6.1 0.00 0.00 0.00 37 1018.2
20260510230123 56 260 1.7 13.0 0.00 0.00 0.00 37 1018.2
20260510225922 56 303 0.9 13.0 0.00 0.01 0.00 37 1018.2
20260510225722 57 355 1.7 13.0 0.00 0.01 0.00 36 1018.3
20260510225522 57 82 2.6 13.0 0.00 0.01 0.00 36 1018.2
20260510225321 57 127 2.6 13.0 0.00 0.01 0.00 35 1018.2
20260510225121 57 250 0.9 3.5 0.00 0.01 0.00 37 1018.1
20260510224921 57 257 0.9 3.5 0.00 0.01 0.00 37 1018.1
20260510224720 57 38 1.7 3.5 0.00 0.01 0.00 37 1018.1
20260510224520 58 99 1.7 3.5 0.00 0.01 0.00 36 1018.0
20260510224320 58 165 0.9 6.1 0.00 0.01 0.00 36 1018.0
20260510224120 58 240 0.9 7.0 0.00 0.01 0.00 36 1017.9
20260510223919 58 98 1.7 7.0 0.00 0.01 0.00 36 1018.0
20260510223719 57 78 1.7 7.0 0.00 0.01 0.00 35 1017.9
20260510223519 58 56 3.5 7.0 0.00 0.01 0.00 35 1018.0
20260510223318 58 6 2.6 7.8 0.00 0.01 0.00 35 1017.9
20260510223118 58 70 1.7 7.8 0.00 0.01 0.00 36 1017.9
20260510222918 58 131 1.7 7.8 0.00 0.01 0.00 35 1017.9
20260510222717 58 14 0.9 7.8 0.00 0.01 0.00 36 1017.9
20260510222517 58 75 2.6 7.8 0.00 0.01 0.00 36 1017.9
20260510222317 58 85 2.6 7.8 0.00 0.01 0.00 36 1017.9
20260510222117 58 27 3.5 7.8 0.00 0.01 0.00 35 1017.9
20260510221916 58 3 3.5 8.7 0.00 0.01 0.00 34 1017.9
20260510221716 58 79 2.6 8.7 0.00 0.01 0.00 35 1017.9
20260510221516 58 81 2.6 8.7 0.00 0.01 0.00 36 1017.9
20260510221315 58 57 2.6 9.6 0.00 0.01 0.00 35 1017.9
20260510221115 58 76 2.6 9.6 0.00 0.01 0.00 36 1017.9
20260510220915 58 117 2.6 9.6 0.00 0.01 0.00 35 1017.8
20260510220714 58 50 4.3 12.2 0.00 0.01 0.00 35 1017.9
20260510220514 58 60 3.5 12.2 0.00 0.01 0.00 35 1017.8
20260510220314 58 32 2.6 12.2 0.00 0.01 0.00 35 1018.0
20260510220114 58 29 2.6 12.2 0.00 0.01 0.00 36 1017.9
20260510215913 58 75 2.6 12.2 0.00 0.24 0.00 36 1018.0
20260510215713 58 32 3.5 8.7 0.00 0.24 0.00 37 1018.1
20260510215513 58 360 3.5 8.7 0.00 0.24 0.00 38 1018.2
20260510215312 58 78 3.5 8.7 0.00 0.24 0.00 36 1018.1
20260510215112 58 266 3.5 7.8 0.00 0.24 0.00 37 1018.2
20260510214912 58 172 2.6 8.7 0.00 0.24 0.00 36 1018.1
20260510214711 58 125 4.3 8.7 0.00 0.24 0.00 36 1018.1
20260510214511 58 67 3.5 8.7 0.00 0.24 0.00 38 1018.1
20260510214311 58 35 3.5 8.7 0.00 0.24 0.00 38 1017.9
20260510214111 58 90 4.3 8.7 0.00 0.24 0.00 38 1018.1
20260510213910 57 80 1.7 8.7 0.00 0.24 0.00 39 1018.0
20260510213710 56 5 1.7 8.7 0.00 0.24 0.00 39 1017.9
20260510213510 56 14 1.7 11.3 0.00 0.24 0.00 40 1017.9
20260510213309 56 165 1.7 12.2 0.00 0.24 0.00 39 1017.9
20260510213109 56 129 3.5 12.2 0.00 0.24 0.00 39 1018.0
20260510212909 56 218 3.5 12.2 0.00 0.24 0.00 38 1017.9
20260510212708 57 228 4.3 13.9 0.00 0.24 0.00 38 1017.9
20260510212508 57 82 3.5 13.9 0.00 0.24 0.00 37 1017.9
20260510212308 57 62 3.5 13.9 0.00 0.24 0.00 39 1017.8
20260510212107 57 26 3.5 13.9 0.00 0.24 0.00 40 1017.8
20260510211907 56 20 3.5 13.9 0.00 0.24 0.00 39 1017.8
20260510211707 56 326 3.5 13.9 0.00 0.24 0.00 40 1017.9
20260510211507 55 80 4.3 13.0 0.00 0.24 0.00 40 1017.7
20260510211306 55 146 3.5 13.0 0.00 0.24 0.00 40 1017.7
20260510211106 55 97 4.3 13.0 0.00 0.24 0.00 39 1017.7
20260510210906 55 88 3.5 11.3 0.00 0.24 0.00 40 1017.7
20260510210706 56 73 4.3 11.3 0.00 0.24 0.00 38 1017.7
20260510210505 56 78 3.5 15.6 0.00 0.24 0.00 41 1017.7
20260510210305 55 134 2.6 15.6 0.00 0.24 0.00 42 1017.6
20260510210104 55 83 2.6 15.6 0.00 0.24 0.00 43 1017.6
20260510205904 55 153 3.5 15.6 0.00 0.24 0.00 43 1017.6
20260510205704 55 152 3.5 15.6 0.00 0.24 0.00 42 1017.5
20260510205504 55 28 3.5 10.4 0.00 0.24 0.00 42 1017.5
20260510205306 55 89 4.3 10.4 0.00 0.24 0.00 41 1017.5
20260510205103 55 94 4.3 13.0 0.00 0.24 0.00 41 1017.6
20260510204903 56 106 2.6 13.9 0.00 0.24 0.00 42 1017.5
20260510204702 56 115 3.5 13.9 0.00 0.24 0.00 43 1017.5
20260510204502 56 100 4.3 13.9 0.00 0.24 0.00 42 1017.4
20260510204302 56 28 5.2 13.9 0.00 0.24 0.00 41 1017.5
20260510204101 56 59 6.1 13.9 0.00 0.24 0.00 41 1017.3
20260510203901 57 111 4.3 9.6 0.00 0.24 0.00 41 1017.4
20260510203701 57 192 1.7 10.4 0.00 0.24 0.00 42 1017.3
20260510203501 57 186 1.7 11.3 0.00 0.24 0.00 43 1017.3
20260510203300 57 312 1.7 15.6 0.00 0.24 0.00 42 1017.2
20260510203100 57 82 3.5 16.5 0.00 0.24 0.00 42 1017.2
20260510202900 57 7 4.3 16.5 0.00 0.24 0.00 40 1017.3
20260510202659 58 125 4.3 16.5 0.00 0.24 0.00 40 1017.1
20260510202459 58 101 5.2 16.5 0.00 0.24 0.00 38 1017.3
20260510202259 58 73 5.2 16.5 0.00 0.24 0.00 39 1017.3
20260510202058 58 26 4.3 15.6 0.00 0.24 0.00 38 1017.3
20260510201858 58 74 4.3 11.3 0.00 0.24 0.00 40 1017.4
20260510201658 58 105 3.5 11.3 0.00 0.24 0.00 39 1017.4
20260510201458 59 85 4.3 13.0 0.00 0.24 0.00 39 1017.3
20260510201257 59 60 4.3 13.0 0.00 0.24 0.00 39 1017.2
20260510201057 59 81 4.3 13.0 0.00 0.24 0.00 38 1017.1
20260510200857 59 87 3.5 13.0 0.00 0.24 0.00 38 1017.2
20260510200656 60 344 3.5 13.0 0.00 0.24 0.00 38 1017.3
20260510200456 60 100 2.6 13.0 0.00 0.24 0.00 40 1017.3
20260510200256 60 131 3.5 13.0 0.00 0.24 0.00 40 1017.3
20260510200055 60 124 3.5 13.9 0.00 0.24 0.00 40 1017.2
20260510195855 59 198 3.5 13.9 0.00 0.24 0.00 40 1017.3
20260510195655 59 66 2.6 13.9 0.00 0.24 0.00 42 1017.2
20260510195455 59 69 5.2 13.9 0.00 0.24 0.00 42 1017.1
20260510195254 58 80 5.2 13.9 0.00 0.24 0.00 41 1017.2
20260510195054 58 85 4.3 10.4 0.00 0.24 0.00 40 1017.3
20260510194854 58 10 3.5 9.6 0.00 0.24 0.00 42 1017.2
20260510194653 58 118 3.5 9.6 0.00 0.24 0.00 41 1017.2
20260510194453 58 230 3.5 9.6 0.00 0.24 0.00 41 1017.2
20260510194253 58 37 3.5 9.6 0.00 0.24 0.00 41 1017.2
20260510194052 58 359 3.5 11.3 0.00 0.24 0.00 42 1017.2
20260510193852 58 38 3.5 12.2 0.00 0.24 0.00 41 1017.2
20260510193652 58 33 2.6 13.0 0.00 0.24 0.00 42 1017.1
20260510193452 57 124 2.6 13.0 0.00 0.24 0.00 43 1017.2
20260510193251 57 102 4.3 13.0 0.00 0.24 0.00 43 1017.2
20260510193051 57 223 4.3 13.0 0.00 0.24 0.00 42 1017.1
20260510192851 58 176 5.2 13.0 0.00 0.24 0.00 43 1017.1
20260510192650 57 101 5.2 13.0 0.00 0.24 0.00 42 1017.1
20260510192450 57 250 3.5 12.2 0.00 0.24 0.00 43 1017.0
20260510192250 57 196 4.3 13.0 0.00 0.24 0.00 42 1017.0
20260510192049 57 63 2.6 13.0 0.00 0.24 0.00 41 1016.9
20260510191849 57 45 1.7 13.0 0.00 0.24 0.00 42 1016.9
20260510191649 57 48 3.5 13.0 0.00 0.24 0.00 42 1017.0
20260510191449 57 128 5.2 13.0 0.00 0.24 0.00 43 1017.0
20260510191248 57 142 4.3 13.0 0.00 0.24 0.00 42 1017.0
20260510191048 57 63 1.7 9.6 0.00 0.24 0.00 45 1017.0
20260510190848 56 76 2.6 7.8 0.00 0.24 0.00 45 1016.9
20260510190647 56 31 2.6 8.7 0.00 0.24 0.00 44 1016.9
20260510190447 56 21 3.5 8.7 0.00 0.24 0.00 44 1016.9
20260510190247 56 12 2.6 8.7 0.00 0.24 0.00 44 1016.9
20260510190046 56 284 2.6 9.6 0.00 0.24 0.00 45 1016.8
20260510185846 56 54 3.5 9.6 0.00 0.24 0.00 44 1016.8
20260510185646 56 41 3.5 9.6 0.00 0.24 0.00 45 1016.8
20260510185446 56 57 3.5 9.6 0.00 0.24 0.00 44 1016.7
20260510185245 56 282 2.6 9.6 0.00 0.24 0.00 44 1016.8
20260510185045 56 107 2.6 8.7 0.00 0.24 0.00 44 1016.7
20260510184845 56 123 2.6 9.6 0.00 0.24 0.00 43 1016.8
20260510184644 56 171 2.6 9.6 0.00 0.24 0.00 43 1016.7
20260510184444 57 101 1.7 9.6 0.00 0.24 0.00 44 1016.7
20260510184244 57 75 3.5 9.6 0.00 0.24 0.00 43 1016.7
20260510184043 57 40 2.6 9.6 0.00 0.24 0.00 42 1016.7
20260510183843 57 297 2.6 9.6 0.00 0.24 0.00 42 1016.7
20260510183643 58 251 3.5 10.4 0.00 0.24 0.00 43 1016.7
20260510183443 58 220 2.6 10.4 0.00 0.24 0.00 42 1016.6
20260510183242 58 134 3.5 10.4 0.00 0.24 0.00 41 1016.6
20260510183042 59 193 2.6 10.4 0.00 0.24 0.00 41 1016.5
20260510182842 59 192 2.6 10.4 0.00 0.24 0.00 41 1016.5
20260510182641 59 64 2.6 10.4 0.00 0.24 0.00 42 1016.5
20260510182441 59 129 1.7 8.7 0.00 0.24 0.00 44 1016.5
20260510182241 58 148 2.6 8.7 0.00 0.24 0.00 46 1016.4
20260510182040 57 138 1.7 9.6 0.00 0.24 0.00 45 1016.4
20260510181840 56 96 2.6 9.6 0.00 0.24 0.00 43 1016.4
20260510181640 57 62 3.5 9.6 0.00 0.24 0.00 43 1016.4
20260510181439 57 50 3.5 9.6 0.00 0.24 0.00 42 1016.4
20260510181239 57 38 3.5 9.6 0.00 0.24 0.00 42 1016.3
20260510181039 57 24 3.5 10.4 0.00 0.24 0.00 44 1016.3
20260510180839 57 41 3.5 11.3 0.00 0.24 0.00 44 1016.4
20260510180638 56 17 3.5 11.3 0.00 0.24 0.00 45 1016.3
20260510180438 56 14 2.6 11.3 0.00 0.24 0.00 46 1016.3
20260510180238 56 75 3.5 11.3 0.00 0.24 0.00 45 1016.4
20260510180037 56 67 2.6 11.3 0.00 0.24 0.00 45 1016.4
20260510175837 56 107 2.6 10.4 0.00 0.24 0.00 45 1016.5
20260510175637 56 149 2.6 10.4 0.00 0.24 0.00 44 1016.4
20260510175436 56 283 3.5 10.4 0.00 0.24 0.00 44 1016.5
20260510175236 56 76 2.6 10.4 0.00 0.24 0.00 44 1016.4
20260510175036 56 62 4.3 10.4 0.00 0.24 0.00 43 1016.5
20260510174836 56 49 3.5 8.7 0.00 0.24 0.00 43 1016.5
20260510174635 57 34 1.7 8.7 0.00 0.24 0.00 44 1016.4
20260510174435 57 268 2.6 8.7 0.00 0.24 0.00 44 1016.3
20260510174235 57 116 2.6 8.7 0.00 0.24 0.00 45 1016.4
20260510174034 56 149 2.6 8.7 0.00 0.24 0.00 44 1016.6
20260510173834 56 154 3.5 8.7 0.00 0.24 0.00 45 1016.4
20260510173634 56 84 2.6 7.8 0.00 0.24 0.00 44 1016.5
20260510173433 56 51 1.7 7.8 0.00 0.24 0.00 46 1016.5
20260510173233 55 97 1.7 8.7 0.00 0.24 0.00 46 1016.5
20260510173033 54 74 2.6 9.6 0.00 0.24 0.00 46 1016.5
20260510172833 54 69 2.6 9.6 0.00 0.24 0.00 46 1016.5
20260510172632 54 87 3.5 9.6 0.00 0.24 0.00 45 1016.4
20260510172432 55 54 4.3 9.6 0.00 0.24 0.00 44 1016.5
20260510172232 55 351 3.5 9.6 0.00 0.24 0.00 44 1016.5
20260510172031 56 307 3.5 10.4 0.00 0.24 0.00 44 1016.5
20260510171831 56 334 2.6 11.3 0.00 0.24 0.00 46 1016.5
20260510171631 56 98 2.6 11.3 0.00 0.24 0.00 44 1016.4
20260510171430 56 143 2.6 11.3 0.00 0.24 0.00 44 1016.4
20260510171230 56 68 2.6 11.3 0.00 0.24 0.00 44 1016.4
20260510171030 56 108 3.5 11.3 0.00 0.24 0.00 44 1016.3
20260510170830 56 221 1.7 10.4 0.00 0.24 0.00 44 1016.3
20260510170629 56 238 2.6 10.4 0.00 0.24 0.00 45 1016.3
20260510170429 55 116 3.5 10.4 0.00 0.24 0.00 45 1016.3
20260510170229 55 66 4.3 10.4 0.00 0.24 0.00 44 1016.3
20260510170028 56 45 3.5 10.4 0.00 0.24 0.00 44 1016.4
20260510165828 56 97 1.7 7.0 0.00 0.24 0.00 45 1016.3
20260510165628 56 15 2.6 7.0 0.00 0.24 0.00 45 1016.3
20260510165427 57 319 1.7 7.0 0.00 0.24 0.00 44 1016.3
20260510165226 57 316 1.7 7.0 0.00 0.24 0.00 45 1016.2
20260510165026 57 50 2.6 10.4 0.00 0.24 0.00 44 1016.2
20260510164825 57 54 2.6 10.4 0.00 0.24 0.00 45 1016.2
20260510164625 57 38 2.6 10.4 0.00 0.24 0.00 44 1016.1
20260510164425 57 60 3.5 10.4 0.00 0.24 0.00 43 1016.1
20260510164224 58 94 4.3 10.4 0.00 0.24 0.00 42 1016.1
20260510164024 58 128 2.6 7.8 0.00 0.24 0.00 43 1016.1
20260510163824 58 49 2.6 7.8 0.00 0.24 0.00 44 1016.0
20260510163624 58 327 0.9 7.8 0.00 0.24 0.00 44 1016.1
20260510163423 58 141 1.7 7.8 0.00 0.24 0.00 43 1016.0
20260510163223 57 104 1.7 7.8 0.00 0.24 0.00 43 1016.1
20260510163023 57 100 2.6 8.7 0.00 0.24 0.00 42 1016.1
20260510162822 57 78 1.7 10.4 0.00 0.24 0.00 43 1016.0
20260510162622 57 360 2.6 10.4 0.00 0.24 0.00 42 1016.1
20260510162422 57 65 3.5 10.4 0.00 0.24 0.00 42 1016.1
20260510162221 57 163 3.5 10.4 0.00 0.24 0.00 42 1016.1
20260510162021 57 177 3.5 10.4 0.00 0.24 0.00 42 1016.1
20260510161821 57 92 3.5 8.7 0.00 0.24 0.00 42 1016.0
20260510161621 57 20 2.6 8.7 0.00 0.24 0.00 43 1016.1
20260510161420 56 254 2.6 10.4 0.00 0.24 0.00 44 1016.0
20260510161220 56 144 2.6 10.4 0.00 0.24 0.00 42 1016.1
20260510161020 56 114 2.6 10.4 0.00 0.24 0.00 43 1016.1
20260510160819 56 85 3.5 10.4 0.00 0.24 0.00 42 1016.2
20260510160619 56 73 2.6 10.4 0.00 0.24 0.00 44 1016.1
20260510160419 56 124 4.3 10.4 0.00 0.24 0.00 43 1016.1
20260510160218 56 134 5.2 10.4 0.00 0.24 0.00 42 1016.0
20260510160018 56 284 3.5 10.4 0.00 0.24 0.00 43 1016.1
20260510155818 56 125 2.6 10.4 0.00 0.24 0.00 44 1015.9
20260510155618 56 127 3.5 10.4 0.00 0.24 0.00 45 1015.9
20260510155417 56 224 4.3 10.4 0.00 0.24 0.00 43 1016.0
20260510155217 56 186 4.3 10.4 0.00 0.24 0.00 43 1016.0
20260510155017 56 77 2.6 9.6 0.00 0.24 0.00 44 1016.0
20260510154816 56 23 1.7 11.3 0.00 0.24 0.00 44 1015.9
20260510154616 56 139 3.5 12.2 0.00 0.24 0.00 43 1016.0
20260510154416 56 97 3.5 12.2 0.00 0.24 0.00 43 1016.0
20260510154215 56 36 1.7 12.2 0.00 0.24 0.00 44 1015.8
20260510154015 56 128 2.6 12.2 0.00 0.24 0.00 44 1016.0
20260510153815 55 80 2.6 12.2 0.00 0.24 0.00 44 1016.0
20260510153615 55 138 2.6 10.4 0.00 0.24 0.00 45 1016.0
20260510153414 55 156 4.3 10.4 0.00 0.24 0.00 46 1016.0
20260510153214 55 225 5.2 10.4 0.00 0.24 0.00 44 1016.0
20260510153014 55 231 3.5 10.4 0.00 0.24 0.00 44 1015.9
20260510152813 55 182 2.6 10.4 0.00 0.24 0.00 45 1016.0
20260510152613 55 133 2.6 10.4 0.00 0.24 0.00 44 1016.0
20260510152413 55 141 3.5 10.4 0.00 0.24 0.00 44 1015.9
20260510152212 55 200 5.2 10.4 0.00 0.24 0.00 43 1016.0
20260510152012 55 9 3.5 10.4 0.00 0.24 0.00 44 1015.9
20260510151812 55 350 2.6 8.7 0.00 0.24 0.00 46 1015.9
20260510151612 55 75 2.6 8.7 0.00 0.24 0.00 45 1015.8
20260510151411 55 72 3.5 9.6 0.00 0.24 0.00 45 1015.8
20260510151211 55 153 3.5 9.6 0.00 0.24 0.00 45 1015.8
20260510151011 55 317 1.7 9.6 0.00 0.24 0.00 45 1015.7
20260510150810 55 31 2.6 9.6 0.00 0.24 0.00 46 1015.8
20260510150610 54 306 2.6 8.7 0.00 0.24 0.00 47 1015.8
20260510150410 54 269 3.5 8.7 0.00 0.24 0.00 46 1015.8
20260510150209 55 102 1.7 8.7 0.00 0.24 0.00 46 1015.8
20260510150009 55 23 1.7 7.0 0.00 0.24 0.00 47 1015.8
20260510145809 54 11 1.7 6.1 0.00 0.24 0.00 47 1015.7
20260510145609 54 61 1.7 6.1 0.00 0.24 0.00 47 1015.7
20260510145408 54 71 1.7 6.1 0.00 0.24 0.00 47 1015.8
20260510145208 54 47 2.6 7.8 0.00 0.24 0.00 46 1015.7
20260510145008 54 158 0.9 8.7 0.00 0.24 0.00 48 1015.6
20260510144807 54 137 1.7 8.7 0.00 0.24 0.00 47 1015.6
20260510144607 54 167 2.6 8.7 0.00 0.24 0.00 47 1015.5
20260510144407 53 63 2.6 8.7 0.00 0.24 0.00 48 1015.5
20260510144206 53 127 2.6 8.7 0.00 0.24 0.00 49 1015.5
20260510144006 53 139 2.6 7.8 0.00 0.24 0.00 48 1015.5
20260510143806 53 45 2.6 7.8 0.00 0.24 0.00 50 1015.5
20260510143605 53 43 3.5 7.8 0.00 0.24 0.00 49 1015.4
20260510143405 53 39 3.5 7.8 0.00 0.24 0.00 50 1015.4
20260510143205 53 128 0.9 7.8 0.00 0.24 0.00 50 1015.3
20260510143005 53 100 1.7 7.8 0.00 0.24 0.00 52 1015.3
20260510142804 53 62 2.6 7.8 0.00 0.24 0.00 52 1015.3
20260510142604 53 154 1.7 7.8 0.00 0.24 0.00 51 1015.2
20260510142404 53 93 2.6 7.8 0.00 0.24 0.00 52 1015.2
20260510142203 52 68 1.7 7.8 0.00 0.24 0.00 52 1015.2
20260510142003 52 51 1.7 7.8 0.00 0.24 0.00 53 1015.2
20260510141803 52 25 2.6 8.7 0.00 0.24 0.00 53 1015.2
20260510141602 52 348 1.7 8.7 0.00 0.24 0.00 53 1015.1
20260510141402 52 94 1.7 8.7 0.00 0.24 0.00 55 1015.1
20260510141202 52 85 2.6 8.7 0.00 0.24 0.00 54 1015.0
20260510141002 52 66 3.5 6.1 0.00 0.24 0.00 54 1015.1
20260510140801 52 43 2.6 6.1 0.00 0.24 0.00 54 1015.1
20260510140601 52 20 1.7 8.7 0.00 0.24 0.00 55 1015.1
20260510140401 51 308 1.7 9.6 0.00 0.24 0.00 56 1015.1
20260510140200 51 255 1.7 9.6 0.00 0.24 0.00 54 1015.0
20260510140000 51 360 3.5 9.6 0.00 0.24 0.00 55 1015.0
20260510135800 51 295 2.6 10.4 0.00 0.24 0.00 55 1015.0
20260510135600 51 275 1.7 10.4 0.00 0.24 0.00 57 1014.9
20260510135359 51 297 1.7 10.4 0.00 0.24 0.00 57 1014.9
20260510135159 50 48 2.6 10.4 0.00 0.24 0.00 57 1014.9
20260510134959 51 328 3.5 10.4 0.00 0.24 0.00 56 1014.9
20260510134758 51 309 1.7 7.8 0.00 0.24 0.00 56 1014.9
20260510134558 51 342 2.6 7.8 0.00 0.24 0.00 56 1014.9
20260510134358 51 73 2.6 7.8 0.00 0.24 0.00 57 1014.9
20260510134157 51 79 2.6 7.8 0.00 0.24 0.00 57 1014.9
20260510133957 50 25 2.6 7.8 0.00 0.24 0.00 57 1014.9
20260510133757 50 40 2.6 7.8 0.00 0.24 0.00 56 1014.7
20260510133556 51 84 1.7 7.8 0.00 0.24 0.00 56 1014.7
20260510133356 50 99 2.6 7.8 0.00 0.24 0.00 58 1014.8
20260510133156 50 86 2.6 7.8 0.00 0.24 0.00 57 1014.8
20260510132956 50 52 2.6 7.8 0.00 0.24 0.00 58 1014.7
20260510132756 50 319 2.6 7.8 0.00 0.24 0.00 58 1014.7
20260510132555 50 352 2.6 7.8 0.00 0.24 0.00 59 1014.7
20260510132355 50 337 2.6 7.8 0.00 0.24 0.00 58 1014.7
20260510132154 50 51 2.6 7.8 0.00 0.24 0.00 59 1014.6
20260510131954 50 125 1.7 8.7 0.00 0.24 0.00 59 1014.6
20260510131754 50 52 1.7 8.7 0.00 0.24 0.00 61 1014.6
20260510131553 50 31 1.7 8.7 0.00 0.24 0.00 61 1014.5
20260510131353 49 28 2.6 8.7 0.00 0.24 0.00 61 1014.5
20260510131153 49 10 2.6 8.7 0.00 0.24 0.00 61 1014.5
20260510130953 49 26 2.6 7.0 0.00 0.24 0.00 62 1014.4
20260510130752 49 346 2.6 8.7 0.00 0.24 0.00 62 1014.4
20260510130552 49 346 2.6 8.7 0.00 0.24 0.00 62 1014.4
20260510130352 49 64 2.6 8.7 0.00 0.24 0.00 62 1014.4
20260510130151 49 12 2.6 8.7 0.00 0.24 0.00 63 1014.4
20260510125951 48 16 3.5 8.7 0.00 0.24 0.00 62 1014.5
20260510125751 48 67 1.7 8.7 0.00 0.24 0.00 63 1014.4
20260510125550 48 52 2.6 8.7 0.00 0.24 0.00 64 1014.4
20260510125350 48 58 4.3 8.7 0.00 0.24 0.00 63 1014.3
20260510125150 48 23 4.3 8.7 0.00 0.24 0.00 63 1014.4
20260510124950 48 76 2.6 7.8 0.00 0.24 0.00 64 1014.3
20260510124749 48 67 2.6 7.8 0.00 0.24 0.00 64 1014.4
20260510124549 48 55 3.5 10.4 0.00 0.24 0.00 64 1014.3
20260510124349 47 353 3.5 10.4 0.00 0.24 0.00 65 1014.2
20260510124148 47 289 1.7 10.4 0.00 0.24 0.00 65 1014.1
20260510123948 47 348 1.7 10.4 0.00 0.24 0.00 66 1014.2
20260510123748 47 341 2.6 10.4 0.00 0.24 0.00 65 1014.2
20260510123547 47 310 1.7 7.8 0.00 0.24 0.00 66 1014.2
20260510123347 46 30 1.7 7.8 0.00 0.24 0.00 67 1014.2
20260510123147 46 49 1.7 7.8 0.00 0.24 0.00 67 1014.2
20260510122947 46 27 3.5 7.8 0.00 0.24 0.00 68 1014.1
20260510122746 46 51 2.6 7.8 0.00 0.24 0.00 68 1014.1
20260510122546 45 29 1.7 7.8 0.00 0.24 0.00 69 1014.2
20260510122346 45 360 2.6 6.1 0.00 0.24 0.00 69 1014.2
20260510122145 45 343 2.6 6.1 0.00 0.24 0.00 69 1014.1
20260510121945 45 129 1.7 6.1 0.00 0.24 0.00 70 1014.1
20260510121745 44 58 1.7 6.1 0.00 0.24 0.00 70 1014.1
20260510121544 44 44 1.7 6.1 0.00 0.24 0.00 72 1014.0
20260510121344 44 65 1.7 6.1 0.00 0.24 0.00 72 1013.8
20260510121144 43 73 1.7 8.7 0.00 0.24 0.00 72 1013.8
20260510120944 43 55 0.9 8.7 0.00 0.24 0.00 73 1013.7
20260510120743 43 65 1.7 8.7 0.00 0.24 0.00 73 1013.7
20260510120543 43 327 1.7 8.7 0.00 0.24 0.00 72 1013.6
20260510120343 43 288 2.6 8.7 0.00 0.24 0.00 72 1013.6
20260510120142 43 91 1.7 8.7 0.00 0.24 0.00 73 1013.5
20260510115942 43 70 1.7 10.4 0.00 0.24 0.00 73 1013.5
20260510115742 43 52 2.6 10.4 0.00 0.24 0.00 73 1013.5
20260510115541 43 84 2.6 10.4 0.00 0.24 0.00 73 1013.5
20260510115341 43 91 2.6 10.4 0.00 0.24 0.00 73 1013.4
20260510115141 43 56 2.6 10.4 0.00 0.24 0.00 73 1013.4
20260510114941 43 67 2.6 8.7 0.00 0.24 0.00 73 1013.5
20260510114740 42 55 3.5 8.7 0.00 0.24 0.00 73 1013.4
20260510114540 42 75 2.6 8.7 0.00 0.24 0.00 73 1013.5
20260510114340 42 344 2.6 8.7 0.00 0.24 0.00 73 1013.6
20260510114139 42 329 2.6 8.7 0.00 0.24 0.00 73 1013.5
20260510113939 42 32 2.6 7.0 0.00 0.24 0.00 74 1013.4
20260510113739 42 322 2.6 7.0 0.00 0.24 0.00 74 1013.4
20260510113538 42 227 1.7 7.0 0.00 0.24 0.00 74 1013.4
20260510113338 42 246 1.7 7.0 0.00 0.24 0.00 74 1013.3
20260510113138 42 264 1.7 7.8 0.00 0.24 0.00 74 1013.3
20260510112938 42 280 0.9 7.8 0.00 0.24 0.00 75 1013.3
20260510112737 42 7 0.9 7.8 0.00 0.24 0.00 75 1013.3
20260510112537 42 32 0.9 7.8 0.00 0.24 0.00 76 1013.3
20260510112337 42 43 2.6 7.8 0.00 0.24 0.00 76 1013.2
20260510112136 42 56 2.6 7.8 0.00 0.24 0.00 76 1013.2
20260510111936 42 143 0.9 7.8 0.00 0.24 0.00 76 1013.2
20260510111736 41 298 1.7 9.6 0.00 0.24 0.00 76 1013.1
20260510111535 41 45 2.6 9.6 0.00 0.24 0.00 76 1013.1
20260510111335 41 21 1.7 9.6 0.00 0.24 0.00 76 1013.1
20260510111135 41 35 1.7 9.6 0.00 0.24 0.00 77 1013.1
20260510110935 41 98 1.7 9.6 0.00 0.24 0.00 77 1013.0
20260510110734 41 345 0.9 7.8 0.00 0.24 0.00 78 1013.0
20260510110534 41 171 0.9 7.8 0.00 0.24 0.00 78 1013.0
20260510110334 41 60 1.7 7.8 0.00 0.24 0.00 78 1012.9
20260510110133 41 56 1.7 7.8 0.00 0.24 0.00 78 1012.8
20260510105933 40 68 1.7 7.8 0.00 0.24 0.00 78 1012.7
20260510105733 40 48 1.7 7.8 0.00 0.24 0.00 79 1012.7
20260510105532 40 26 0.9 7.8 0.00 0.24 0.00 79 1012.7
20260510105332 40 327 0.9 7.8 0.00 0.24 0.00 79 1012.6
20260510105132 40 271 0.9 7.8 0.00 0.24 0.00 79 1012.6
20260510104932 40 233 0.9 7.8 0.00 0.24 0.00 79 1012.6
20260510104731 40 179 0.9 6.1 0.00 0.24 0.00 80 1012.5
20260510104531 40 62 0.9 6.1 0.00 0.24 0.00 80 1012.4
20260510104331 40 20 0.9 3.5 0.00 0.24 0.00 80 1012.3
20260510104130 40 35 0.9 4.3 0.00 0.24 0.00 80 1012.3
20260510103930 39 49 0.9 4.3 0.00 0.24 0.00 80 1012.3
20260510103730 39 269 0.0 4.3 0.00 0.24 0.00 80 1012.2
20260510103529 39 109 0.9 4.3 0.00 0.24 0.00 80 1012.2
20260510103329 39 352 0.9 4.3 0.00 0.24 0.00 80 1012.2
20260510103129 39 322 0.0 3.5 0.00 0.24 0.00 80 1012.2
20260510102928 39 24 0.9 3.5 0.00 0.24 0.00 80 1012.1
20260510102728 39 82 0.9 3.5 0.00 0.24 0.00 80 1012.1
20260510102528 39 132 0.9 3.5 0.00 0.24 0.00 80 1012.0
20260510102328 39 212 0.9 3.5 0.00 0.24 0.00 80 1012.0
20260510102127 39 238 0.9 3.5 0.00 0.24 0.00 80 1011.9
20260510101927 39 231 0.9 3.5 0.00 0.24 0.00 80 1011.9
20260510101727 39 164 0.9 3.5 0.00 0.24 0.00 80 1011.8
20260510101526 39 161 0.0 3.5 0.00 0.24 0.00 80 1011.8
20260510101326 39 251 0.0 1.7 0.00 0.24 0.00 80 1011.7
20260510101126 39 251 0.0 1.7 0.00 0.24 0.00 80 1011.7
20260510100925 39 251 0.0 2.6 0.00 0.24 0.00 80 1011.6
20260510100725 39 230 0.0 2.6 0.00 0.24 0.00 80 1011.6
20260510100525 39 225 0.9 2.6 0.00 0.24 0.00 80 1011.5
20260510100325 39 225 0.9 2.6 0.00 0.24 0.00 80 1011.5
20260510100124 39 225 0.0 2.6 0.00 0.24 0.00 80 1011.4
20260510095924 39 229 0.0 1.7 0.00 0.24 0.00 80 1011.4
20260510095724 39 235 0.0 1.7 0.00 0.24 0.00 80 1011.3
20260510095523 39 238 0.0 1.7 0.00 0.24 0.00 80 1011.3
20260510095323 39 238 0.0 1.7 0.00 0.24 0.00 80 1011.3
20260510095123 39 238 0.0 1.7 0.00 0.24 0.00 80 1011.2
20260510094922 39 235 0.0 1.7 0.00 0.24 0.00 80 1011.2
20260510094722 39 174 0.0 1.7 0.00 0.24 0.00 80 1011.2
20260510094522 40 129 0.0 1.7 0.00 0.24 0.00 80 1011.1
20260510094322 40 129 0.0 2.6 0.00 0.24 0.00 79 1011.1
20260510094121 40 130 0.0 3.5 0.00 0.24 0.00 79 1011.1
20260510093921 40 131 0.0 3.5 0.00 0.24 0.00 79 1011.1
20260510093721 40 131 0.0 3.5 0.00 0.24 0.00 79 1011.1
20260510093520 40 139 0.0 3.5 0.00 0.24 0.00 79 1011.0
20260510093320 40 197 0.0 3.5 0.00 0.24 0.00 79 1010.9
20260510093120 40 216 0.0 1.7 0.00 0.24 0.00 79 1010.9
20260510092919 40 216 0.0 1.7 0.00 0.24 0.00 79 1010.9
20260510092719 40 216 0.0 1.7 0.00 0.24 0.00 79 1010.9
20260510092519 40 216 0.0 1.7 0.00 0.24 0.00 79 1010.8
20260510092319 40 216 0.0 1.7 0.00 0.24 0.00 78 1010.7
20260510092118 40 216 0.0 1.7 0.00 0.24 0.00 78 1010.8
20260510091918 40 0 0.0 1.7 0.00 0.24 0.00 78 1010.7
20260510091718 40 216 0.0 1.7 0.00 0.24 0.00 78 1010.7
20260510091517 40 216 0.0 2.6 0.00 0.24 0.00 78 1010.6
20260510091317 40 216 0.0 2.6 0.00 0.24 0.00 77 1010.6
20260510091117 40 216 0.0 2.6 0.00 0.24 0.00 77 1010.6
20260510090916 41 202 0.0 2.6 0.00 0.24 0.00 77 1010.6
20260510090716 41 258 0.9 2.6 0.00 0.24 0.00 77 1010.5
20260510090516 41 242 0.0 1.7 0.00 0.24 0.00 77 1010.4
20260510090316 41 28 0.0 1.7 0.00 0.24 0.00 76 1010.5
20260510090115 41 28 0.0 1.7 0.00 0.24 0.00 76 1010.5
20260510085915 41 28 0.0 1.7 0.00 0.24 0.00 76 1010.4
20260510085715 41 28 0.0 1.7 0.00 0.24 0.00 76 1010.4
20260510085514 41 28 0.0 1.7 0.00 0.24 0.00 76 1010.4
20260510085314 41 28 0.0 3.5 0.00 0.24 0.00 76 1010.4
20260510085114 41 28 0.0 4.3 0.00 0.24 0.00 75 1010.4
20260510084913 41 28 0.0 4.3 0.00 0.24 0.00 75 1010.4
20260510084713 41 28 0.0 4.3 0.00 0.24 0.00 75 1010.4
20260510084513 42 33 0.9 4.3 0.00 0.24 0.00 75 1010.3
20260510084312 42 59 0.0 2.6 0.00 0.24 0.00 75 1010.4
20260510084112 42 9 0.0 3.5 0.00 0.24 0.00 74 1010.3
20260510083912 42 91 0.9 3.5 0.00 0.24 0.00 74 1010.3
20260510083712 42 89 0.0 3.5 0.00 0.24 0.00 75 1010.3
20260510083511 42 71 0.9 3.5 0.00 0.24 0.00 74 1010.4
20260510083311 42 131 0.0 2.6 0.00 0.24 0.00 74 1010.3
20260510083111 42 129 0.0 1.7 0.00 0.24 0.00 74 1010.3
20260510082910 42 129 0.0 2.6 0.00 0.24 0.00 74 1010.3
20260510082710 42 129 0.0 2.6 0.00 0.24 0.00 73 1010.2
20260510082510 42 114 0.0 4.3 0.00 0.24 0.00 73 1010.3
20260510082310 42 33 0.9 4.3 0.00 0.24 0.00 73 1010.2
20260510082109 42 354 0.9 4.3 0.00 0.24 0.00 73 1010.2
20260510081909 42 344 0.9 4.3 0.00 0.24 0.00 72 1010.2
20260510081709 42 325 0.9 4.3 0.00 0.24 0.00 72 1010.2
20260510081508 43 311 0.9 3.5 0.00 0.24 0.00 72 1010.1
20260510081308 43 306 0.9 3.5 0.00 0.24 0.00 72 1010.1
20260510081108 43 334 0.9 3.5 0.00 0.24 0.00 72 1010.1
20260510080907 43 4 0.9 4.3 0.00 0.24 0.00 72 1010.1
20260510080707 43 2 0.9 4.3 0.00 0.24 0.00 72 1010.1
20260510080507 43 348 0.9 6.1 0.00 0.24 0.00 72 1010.0
20260510080306 43 353 1.7 6.1 0.00 0.24 0.00 71 1010.0
20260510080106 43 337 1.7 6.1 0.00 0.24 0.00 71 1009.8
20260510075906 43 302 1.7 13.0 0.00 0.24 0.00 71 1009.9
20260510075706 43 48 1.7 13.9 0.00 0.24 0.00 71 1009.9
20260510075505 44 34 1.7 13.9 0.00 0.24 0.00 70 1009.8
20260510075306 44 337 2.6 13.9 0.00 0.24 0.00 70 1009.9
20260510075105 44 29 3.5 13.9 0.00 0.24 0.00 70 1009.9
20260510074904 44 354 1.7 7.8 0.00 0.24 0.00 70 1009.9
20260510074704 44 354 1.7 6.1 0.00 0.24 0.00 71 1009.8
20260510074504 44 334 1.7 6.1 0.00 0.24 0.00 72 1009.8
20260510074304 44 276 0.9 6.1 0.00 0.24 0.00 72 1009.8
20260510074103 44 325 1.7 6.1 0.00 0.24 0.00 72 1009.8
20260510073903 44 199 1.7 6.1 0.00 0.24 0.00 72 1009.6
20260510073703 44 342 0.9 4.3 0.00 0.24 0.00 72 1009.7
20260510073502 44 339 0.9 3.5 0.00 0.24 0.00 72 1009.7
20260510073302 44 357 1.7 3.5 0.00 0.24 0.00 73 1009.6
20260510073102 44 354 0.9 5.2 0.00 0.24 0.00 73 1009.6
20260510072901 44 12 0.9 5.2 0.00 0.24 0.00 73 1009.6
20260510072701 44 357 0.9 6.1 0.00 0.24 0.00 74 1009.6
20260510072501 44 358 0.9 11.3 0.00 0.24 0.00 73 1009.6
20260510072300 44 29 1.7 12.2 0.00 0.24 0.00 73 1009.6
20260510072100 44 339 1.7 12.2 0.00 0.24 0.00 73 1009.5
20260510071900 44 321 1.7 12.2 0.00 0.24 0.00 72 1009.5
20260510071700 45 315 2.6 12.2 0.00 0.24 0.00 72 1009.5
20260510071459 45 347 1.7 12.2 0.00 0.24 0.00 72 1009.4
20260510071259 45 354 1.7 5.2 0.00 0.24 0.00 72 1009.5
20260510071059 45 331 0.9 5.2 0.00 0.24 0.00 72 1009.4
20260510070858 45 291 0.9 5.2 0.00 0.24 0.00 73 1009.5
20260510070658 45 280 0.9 5.2 0.00 0.24 0.00 73 1009.4
20260510070458 45 360 0.9 5.2 0.00 0.24 0.00 73 1009.4
20260510070257 45 62 0.9 5.2 0.00 0.24 0.00 73 1009.4
20260510070057 45 61 0.9 3.5 0.00 0.24 0.00 73 1009.4
20260510065857 45 360 0.9 3.5 0.00 0.24 0.00 73 1009.4
20260510065657 46 333 0.0 3.5 0.00 0.24 0.00 73 1009.4
20260510065456 46 339 0.9 5.2 0.00 0.24 0.00 73 1009.3
20260510065256 46 298 0.9 5.2 0.00 0.24 0.00 72 1009.2
20260510065056 46 294 0.9 5.2 0.00 0.24 0.00 72 1009.1
20260510064855 46 279 1.7 5.2 0.00 0.24 0.00 72 1009.3
20260510064655 46 8 1.7 5.2 0.00 0.24 0.00 72 1009.2
20260510064455 46 342 1.7 5.2 0.00 0.24 0.00 72 1009.3
20260510064254 46 340 1.7 5.2 0.00 0.24 0.00 73 1009.2
20260510064054 46 39 1.7 5.2 0.00 0.24 0.00 73 1009.2
20260510063854 46 38 1.7 5.2 0.00 0.24 0.00 73 1009.2
20260510063654 46 32 1.7 5.2 0.00 0.24 0.00 73 1009.3
20260510063453 46 31 0.9 5.2 0.00 0.24 0.00 74 1009.3
20260510063253 46 318 0.9 2.6 0.00 0.24 0.00 74 1009.3
20260510063053 46 27 0.9 2.6 0.00 0.24 0.00 74 1009.3
20260510062852 46 22 0.9 2.6 0.00 0.24 0.00 74 1009.2
20260510062652 46 43 0.9 2.6 0.00 0.24 0.00 74 1009.2
20260510062452 47 360 0.9 2.6 0.00 0.24 0.00 74 1009.2
20260510062251 47 287 0.9 4.3 0.00 0.24 0.00 74 1009.2
20260510062051 47 351 0.9 4.3 0.00 0.24 0.00 75 1009.1
20260510061851 47 42 0.9 5.2 0.00 0.24 0.00 75 1009.1
20260510061651 47 54 1.7 5.2 0.00 0.24 0.00 75 1009.1
20260510061450 47 59 1.7 5.2 0.00 0.24 0.00 75 1009.1
20260510061250 47 64 0.9 5.2 0.00 0.24 0.00 76 1009.0
20260510061050 47 28 0.9 5.2 0.00 0.24 0.00 78 1009.0
20260510060849 47 29 0.0 1.7 0.00 0.24 0.00 78 1008.9
20260510060649 47 29 0.0 1.7 0.00 0.24 0.00 78 1009.0
20260510060449 47 29 0.0 1.7 0.00 0.24 0.00 78 1008.9
20260510060248 47 29 0.0 1.7 0.00 0.24 0.00 78 1008.9
20260510060048 47 29 0.0 1.7 0.00 0.24 0.00 77 1008.9
20260510055848 47 29 0.0 1.7 0.00 0.24 0.00 77 1008.8
20260510055648 47 29 0.0 1.7 0.00 0.24 0.00 77 1008.9
20260510055447 47 29 0.0 1.7 0.00 0.24 0.00 77 1008.9
20260510055247 47 29 0.0 1.7 0.00 0.24 0.00 77 1008.8
20260510055047 47 0 0.0 1.7 0.00 0.24 0.00 76 1008.8
20260510054846 47 29 0.0 1.7 0.00 0.24 0.00 76 1008.7
20260510054646 47 28 0.0 1.7 0.00 0.24 0.00 76 1008.5
20260510054446 48 0 0.0 1.7 0.00 0.24 0.00 76 1008.6
20260510054245 48 29 0.0 1.7 0.00 0.24 0.00 76 1008.6
20260510054045 48 29 0.0 1.7 0.00 0.24 0.00 76 1008.6
20260510053845 47 0 0.0 0.0 0.00 0.24 0.00 77 1008.6
20260510053645 48 0 0.0 0.0 0.00 0.24 0.00 76 1008.5
20260510053444 48 0 0.0 0.0 0.00 0.24 0.00 77 1008.6
20260510053244 48 0 0.0 0.0 0.00 0.24 0.00 77 1008.5
20260510053044 48 0 0.0 0.0 0.00 0.24 0.00 76 1008.5
20260510052843 48 0 0.0 0.0 0.00 0.24 0.00 76 1008.4
20260510052643 48 0 0.0 0.0 0.00 0.24 0.00 76 1008.4
20260510052443 48 0 0.0 0.9 0.00 0.24 0.00 76 1008.3
20260510052242 48 0 0.0 0.9 0.00 0.24 0.00 76 1008.3
20260510052042 48 0 0.0 0.9 0.00 0.24 0.00 76 1008.4
20260510051842 48 29 0.0 1.7 0.00 0.24 0.00 76 1008.4
20260510051642 48 0 0.0 1.7 0.00 0.24 0.00 76 1008.4
20260510051441 48 29 0.0 1.7 0.00 0.24 0.00 75 1008.4
20260510051241 48 29 0.0 1.7 0.00 0.24 0.00 76 1008.4
20260510051041 48 0 0.0 1.7 0.00 0.24 0.00 75 1008.5
20260510050840 48 0 0.0 1.7 0.00 0.24 0.00 76 1008.3
20260510050640 48 29 0.0 1.7 0.00 0.24 0.00 76 1008.2
20260510050440 48 29 0.0 1.7 0.00 0.24 0.00 76 1008.4
20260510050239 48 0 0.0 1.7 0.00 0.24 0.00 76 1008.4
20260510050039 48 29 0.0 3.5 0.00 0.24 0.00 76 1008.4
20260510045839 48 29 0.0 4.3 0.00 0.24 0.00 76 1008.3
20260510045639 48 29 0.0 4.3 0.00 0.24 0.00 76 1008.3
20260510045438 48 48 0.0 4.3 0.00 0.24 0.00 76 1008.3
20260510045238 48 47 0.9 4.3 0.00 0.24 0.00 76 1008.2
20260510045038 48 347 0.9 4.3 0.00 0.24 0.00 77 1008.2
20260510044837 48 344 0.9 5.2 0.00 0.24 0.00 77 1008.1
20260510044637 48 111 0.9 5.2 0.00 0.24 0.00 77 1008.0
20260510044437 48 68 0.0 5.2 0.00 0.24 0.00 77 1007.9
20260510044236 49 41 0.9 5.2 0.00 0.24 0.00 77 1007.9
20260510044036 49 340 0.9 5.2 0.00 0.24 0.00 77 1007.9
20260510043836 49 314 0.0 3.5 0.00 0.24 0.00 77 1007.9
20260510043635 49 29 0.9 3.5 0.00 0.24 0.00 77 1008.0
20260510043435 49 360 0.9 3.5 0.00 0.24 0.00 77 1008.0
20260510043235 49 337 0.9 5.2 0.00 0.24 0.00 77 1008.0
20260510043035 49 329 0.9 5.2 0.00 0.24 0.00 78 1007.9
20260510042834 49 29 0.9 5.2 0.00 0.24 0.00 78 1007.9
20260510042634 50 355 0.9 6.1 0.00 0.24 0.00 77 1007.8
20260510042434 50 337 1.7 6.1 0.00 0.24 0.00 78 1007.7
20260510042233 50 335 1.7 6.1 0.00 0.24 0.00 78 1007.8
20260510042033 49 2 1.7 6.1 0.00 0.24 0.00 78 1007.9
20260510041833 49 3 1.7 6.1 0.00 0.24 0.00 78 1007.9
20260510041632 49 2 1.7 6.1 0.00 0.24 0.00 79 1007.9
20260510041432 50 53 0.9 5.2 0.00 0.24 0.00 79 1007.9
20260510041232 50 350 0.9 6.1 0.00 0.24 0.00 80 1007.7
20260510041032 50 348 0.9 6.1 0.00 0.24 0.00 79 1007.4
20260510040831 50 348 1.7 6.1 0.00 0.24 0.00 79 1007.3
20260510040631 50 354 2.6 8.7 0.00 0.24 0.00 79 1007.5
20260510040431 50 330 1.7 9.6 0.00 0.24 0.00 79 1007.4
20260510040230 50 318 1.7 9.6 0.00 0.24 0.00 78 1007.3
20260510040030 50 334 2.6 9.6 0.00 0.24 0.00 79 1007.2
20260510035830 50 357 2.6 9.6 0.00 0.24 0.24 79 1007.1
20260510035630 50 354 1.7 7.8 0.00 0.24 0.24 80 1007.1
20260510035429 50 29 1.7 7.8 0.00 0.24 0.24 80 1007.1
20260510035229 51 329 1.7 7.8 0.00 0.24 0.24 81 1007.1
20260510035029 51 23 2.6 7.8 0.00 0.24 0.24 81 1007.1
20260510034828 51 343 2.6 7.8 0.00 0.24 0.24 82 1007.0
20260510034628 51 6 2.6 6.1 0.00 0.24 0.24 83 1007.1
20260510034428 50 322 1.7 6.1 0.00 0.24 0.24 83 1007.2
20260510034228 50 321 1.7 5.2 0.00 0.24 0.24 84 1007.1
20260510034027 50 343 0.9 3.5 0.00 0.24 0.24 85 1006.9
20260510033827 50 337 0.0 3.5 0.00 0.24 0.24 85 1006.8
20260510033626 50 329 0.9 3.5 0.00 0.24 0.24 86 1006.7
20260510033426 51 280 0.9 3.5 0.00 0.24 0.24 86 1006.5
20260510033226 51 141 0.9 2.6 0.00 0.24 0.24 86 1006.6
20260510033026 51 100 0.9 1.7 0.00 0.24 0.24 87 1006.5
20260510032825 51 52 0.9 1.7 0.00 0.24 0.24 87 1006.5
20260510032625 51 257 0.0 1.7 0.00 0.24 0.24 88 1006.5
20260510032425 51 256 0.0 2.6 0.00 0.24 0.24 89 1006.5
20260510032224 51 256 0.0 2.6 0.00 0.24 0.24 89 1006.5
20260510032024 51 278 0.0 2.6 0.00 0.24 0.24 89 1006.5
20260510031824 51 309 0.9 2.6 0.00 0.24 0.24 90 1006.4
20260510031623 51 320 0.0 2.6 0.00 0.24 0.24 90 1006.4
20260510031423 51 95 0.0 2.6 0.00 0.24 0.24 92 1006.4
20260510031223 51 87 0.9 2.6 0.00 0.24 0.24 92 1006.4
20260510031023 52 338 0.9 3.5 0.00 0.24 0.24 93 1006.4
20260510030822 52 342 0.9 3.5 0.00 0.24 0.24 94 1006.4
20260510030622 52 354 0.9 3.5 0.00 0.24 0.24 94 1006.4
20260510030422 52 254 0.9 3.5 0.00 0.24 0.24 95 1006.4
20260510030221 52 232 0.9 3.5 0.00 0.24 0.24 95 1006.4
20260510030021 52 232 0.9 1.7 0.00 0.24 0.24 95 1006.5
20260510025821 52 232 0.0 2.6 0.00 0.24 0.24 95 1006.4
20260510025621 52 232 0.0 2.6 0.00 0.24 0.24 95 1006.4
20260510025420 51 232 0.0 2.6 0.00 0.24 0.24 95 1006.4
20260510025220 51 232 0.0 2.6 0.00 0.24 0.24 95 1006.3
20260510025020 51 232 0.0 2.6 0.00 0.24 0.24 95 1006.2
20260510024819 51 0 0.0 1.7 0.00 0.24 0.24 95 1006.2
20260510024619 51 0 0.0 1.7 0.00 0.24 0.24 95 1006.1
20260510024419 51 0 0.0 1.7 0.00 0.24 0.24 95 1006.1
20260510024218 51 232 0.0 1.7 0.00 0.24 0.24 95 1006.1
20260510024018 51 232 0.0 1.7 0.00 0.24 0.24 95 1006.1
20260510023753 51 232 0.0 0.9 0.00 0.24 0.24 95 1006.0
20260510023552 51 0 0.0 0.9 0.00 0.24 0.24 95 1006.1
20260510023352 51 232 0.0 1.7 0.00 0.24 0.24 95 1006.0
20260510023152 51 232 0.0 1.7 0.00 0.24 0.24 95 1006.0
20260510022952 51 0 0.0 1.7 0.00 0.24 0.24 95 1006.0
20260510022751 51 232 0.0 1.7 0.00 0.24 0.24 95 1006.0
20260510022551 51 232 0.0 1.7 0.00 0.24 0.24 95 1006.1
20260510022351 51 232 0.0 1.7 0.00 0.24 0.24 95 1006.1
20260510022150 52 232 0.0 1.7 0.00 0.24 0.24 95 1006.1
20260510021950 52 232 0.0 1.7 0.00 0.24 0.24 95 1006.1
20260510021750 52 232 0.0 1.7 0.00 0.24 0.24 95 1006.0
20260510021549 52 232 0.0 2.6 0.00 0.24 0.24 95 1005.9
20260510021349 52 232 0.9 3.5 0.00 0.24 0.24 95 1005.9
20260510021149 52 232 0.0 3.5 0.00 0.24 0.24 95 1005.9
20260510020948 52 232 0.0 3.5 0.00 0.24 0.24 95 1005.9
20260510020748 52 241 0.9 3.5 0.00 0.24 0.24 95 1005.8
20260510020548 52 267 0.9 3.5 0.00 0.24 0.24 94 1005.8
20260510020348 52 268 0.9 3.5 0.00 0.24 0.24 95 1005.7
20260510020147 52 246 0.9 3.5 0.00 0.24 0.24 94 1005.7
20260510015947 52 236 0.0 2.6 0.00 0.24 0.24 94 1005.7
20260510015747 52 235 0.0 2.6 0.00 0.24 0.24 94 1005.7
20260510015546 52 234 0.9 2.6 0.00 0.24 0.24 94 1005.7
20260510015346 52 224 0.9 2.6 0.00 0.24 0.24 94 1005.7
20260510015146 52 219 0.9 3.5 0.00 0.24 0.24 94 1005.7
20260510014946 52 219 0.9 3.5 0.00 0.24 0.24 94 1005.7
20260510014745 52 219 0.0 3.5 0.00 0.24 0.24 94 1005.6
20260510014545 52 219 0.9 3.5 0.00 0.24 0.24 94 1005.5
20260510014345 52 252 0.9 3.5 0.00 0.24 0.24 94 1005.5
20260510014144 52 277 0.0 2.6 0.00 0.24 0.24 94 1005.4
20260510013944 52 282 0.0 2.6 0.00 0.24 0.24 94 1005.4
20260510013744 52 260 0.9 2.6 0.00 0.24 0.24 94 1005.4
20260510013543 52 156 0.0 2.6 0.00 0.24 0.24 94 1005.3
20260510013343 52 217 0.0 3.5 0.00 0.24 0.24 93 1005.2
20260510013143 52 217 0.9 3.5 0.00 0.24 0.24 93 1005.1
20260510012942 52 217 0.9 3.5 0.00 0.24 0.24 93 1005.1
20260510012742 52 217 0.9 3.5 0.00 0.24 0.24 93 1005.0
20260510012542 52 217 0.0 3.5 0.00 0.24 0.24 93 1005.0
20260510012342 52 217 0.0 1.7 0.00 0.24 0.24 93 1005.0
20260510012141 53 217 0.0 1.7 0.00 0.24 0.24 93 1005.0
20260510011941 53 217 0.0 3.5 0.00 0.24 0.24 92 1005.0
20260510011741 53 217 0.0 5.2 0.00 0.24 0.24 92 1004.9
20260510011540 53 217 0.0 5.2 0.00 0.24 0.24 92 1004.8
20260510011340 53 217 0.9 5.2 0.00 0.24 0.24 92 1004.8
20260510011140 53 207 0.9 5.2 0.00 0.24 0.24 92 1004.7
20260510010939 53 211 0.9 5.2 0.00 0.24 0.24 92 1004.6
20260510010739 53 203 1.7 5.2 0.00 0.24 0.24 92 1004.6
20260510010539 53 201 1.7 3.5 0.00 0.24 0.24 92 1004.6
20260510010339 53 201 0.9 3.5 0.00 0.24 0.24 92 1004.6
20260510010138 53 200 0.9 4.3 0.00 0.24 0.24 91 1004.5
20260510005938 53 200 0.9 4.3 0.00 0.24 0.24 91 1004.5
20260510005738 53 200 0.9 4.3 0.00 0.24 0.24 91 1004.4
20260510005537 53 207 0.9 4.3 0.00 0.24 0.24 91 1004.4
20260510005337 54 214 0.9 4.3 0.00 0.24 0.24 91 1004.4
20260510005137 54 211 1.7 4.3 0.00 0.24 0.24 91 1004.3
20260510004936 54 233 1.7 4.3 0.00 0.24 0.24 91 1004.3
20260510004736 54 236 0.9 5.2 0.00 0.24 0.24 91 1004.3
20260510004536 54 236 0.9 6.1 0.00 0.24 0.24 91 1004.1
20260510004336 54 246 0.9 6.1 0.00 0.24 0.24 91 1004.1
20260510004135 54 210 1.7 6.1 0.00 0.24 0.24 91 1004.0
20260510003935 54 187 2.6 6.1 0.00 0.24 0.24 91 1004.0
20260510003735 54 226 2.6 6.1 0.00 0.24 0.24 91 1004.0
20260510003534 54 229 1.7 5.2 0.00 0.24 0.24 90 1004.0
20260510003334 54 198 2.6 5.2 0.00 0.24 0.24 90 1004.0
20260510003134 54 222 1.7 5.2 0.00 0.24 0.24 90 1004.0
20260510002933 54 207 1.7 5.2 0.00 0.24 0.24 90 1004.0
20260510002733 54 197 1.7 5.2 0.00 0.24 0.24 90 1004.1
20260510002533 54 193 1.7 5.2 0.00 0.24 0.24 90 1004.0
20260510002333 54 206 0.9 5.2 0.00 0.24 0.24 90 1004.0
20260510002132 54 213 1.7 5.2 0.00 0.24 0.24 90 1004.0
20260510001932 54 217 1.7 5.2 0.00 0.24 0.24 90 1004.0
20260510001732 54 168 0.9 5.2 0.00 0.24 0.24 90 1003.9
20260510001531 54 178 0.9 5.2 0.00 0.24 0.24 90 1004.0
20260510001331 54 245 1.7 5.2 0.00 0.24 0.24 90 1004.0
20260510001131 54 212 1.7 5.2 0.00 0.24 0.24 89 1003.9
20260510000930 54 241 1.7 5.2 0.00 0.24 0.24 89 1003.9
20260510000730 54 279 0.9 5.2 0.00 0.24 0.24 90 1003.8
20260510000530 54 271 0.9 5.2 0.00 0.24 0.24 90 1003.9
20260510000330 54 139 0.9 5.2 0.00 0.24 0.24 90 1003.9
20260510000129 54 192 0.9 5.2 0.00 0.24 0.24 90 1003.8
20260509235929 54 185 0.9 4.3 0.00 0.24 0.24 89 1003.7
20260509235729 54 233 0.9 4.3 0.00 0.24 0.24 89 1003.7